Location: Newark
(6.1731°S, 35.7419°E)
Time: 05:17:04
(UTC+00:00)

Transit 4A - All Passes

Search period start: 27 February 2020 00:00
Search period end: 08 March 2020 00:00
Orbit: 872 x 973 km, 66.8° (Epoch: 26 February)

Date Brightness Start Highest point End Pass type
(mag) Time Alt. Az. Time Alt. Az. Time Alt. Az.
27 Feb - 06:21:27 10° NNE 06:26:18 25° ENE 06:31:15 10° SE daylight
27 Feb - 08:07:18 10° NW 08:12:22 28° WSW 08:17:35 10° S daylight
27 Feb - 17:31:27 10° SE 17:34:42 15° ESE 17:37:53 10° E visible
27 Feb - 19:15:04 10° SW 19:20:58 47° WNW 19:26:41 10° N visible
28 Feb - 06:29:51 10° N 06:35:32 43° ENE 06:41:22 10° SE daylight
28 Feb - 08:18:07 10° WNW 08:21:46 16° WSW 08:25:29 10° SSW daylight
28 Feb - 17:39:07 10° SSE 17:44:06 25° ESE 17:48:58 10° ENE visible
28 Feb - 19:25:06 10° SW 19:30:12 27° WNW 19:35:11 10° NNW visible
29 Feb - 06:38:45 10° NNW 06:44:47 74° ENE 06:51:00 10° SSE daylight
29 Feb - 17:47:38 10° S 17:53:28 42° ESE 17:59:06 10° NE visible
29 Feb - 19:35:57 10° WSW 19:39:25 16° WNW 19:42:52 10° NW visible
01 Mar - 06:48:04 10° NNW 06:54:03 66° WSW 07:00:16 10° SSE daylight
01 Mar - 17:56:35 10° SSW 18:02:46 73° ESE 18:08:44 10° NNE visible
02 Mar - 05:13:28 10° NNE 05:17:23 18° ENE 05:21:21 10° ESE daylight
02 Mar - 06:57:47 10° NW 07:03:22 39° WSW 07:09:09 10° S daylight
02 Mar - 18:05:55 10° SSW 18:12:03 67° WNW 18:17:59 10° N visible
03 Mar - 05:21:23 10° NNE 05:26:36 31° ENE 05:31:58 10° SE daylight
03 Mar - 07:08:03 10° WNW 07:12:44 23° WSW 07:17:33 10° SSW daylight
03 Mar - 16:31:04 10° SSE 16:35:05 18° ESE 16:39:01 10° ENE visible
03 Mar - 18:15:38 10° SW 18:21:17 38° WNW 18:26:47 10° N visible
04 Mar - 05:29:59 10° N 05:35:51 52° ENE 05:41:53 10° SSE daylight
04 Mar - 07:19:24 10° W 07:22:09 13° WSW 07:24:56 10° SW daylight
04 Mar - 16:39:07 10° S 16:44:28 30° ESE 16:49:40 10° NE visible
04 Mar - 18:25:53 10° WSW 18:30:30 22° WNW 18:35:02 10° NNW visible
05 Mar - 05:39:02 10° NNW 05:45:07 89° E 05:51:23 10° SSE daylight
05 Mar - 16:47:49 10° S 16:53:48 51° ESE 16:59:36 10° NE visible
05 Mar - 18:37:21 10° W 18:39:44 12° WNW 18:42:06 10° NW visible
06 Mar - 04:06:17 10° NE 04:08:28 12° ENE 04:10:40 10° E daylight
06 Mar - 05:48:29 10° NW 05:54:24 54° WSW 06:00:31 10° S daylight
06 Mar - 16:56:54 10° SSW 17:03:06 88° ESE 17:09:05 10° NNE visible
07 Mar - 04:13:11 10° NNE 04:17:42 22° ENE 04:22:18 10° ESE daylight
07 Mar - 05:58:23 10° NW 06:03:44 32° WSW 06:09:14 10° S daylight
07 Mar - 15:23:43 10° SE 15:26:02 12° ESE 15:28:19 10° E daylight
07 Mar - 17:06:22 10° SSW 17:12:22 55° WNW 17:18:10 10° N visible
